Miscellaneous Local Product
Issued by NWS North Platte, NE

Home | Current Version | Previous Version | Graphics & Text | Print | Product List | Glossary On
Versions: 1 2 3 4 5 6 7 8 9 10 11 12 13 14 15 16 17 18 19 20 21 22 23 24 25 26 27 28 29 30 31 32 33 34 35 36 37 38 39 40 41 42 43 44 45 46 47 48 49 50
000
AXUS43 KLBF 230810
MISLBF


WESTERN AND NORTH CENTRAL NEBRASKA HOURLY WEATHER ROUNDUP
NATIONAL WEATHER SERVICE NORTH PLATTE NE
200 AM CST TUE JAN 23 2018

NOTE: "FAIR" INDICATES FEW OR NO CLOUDS BELOW 12,000 FEET WITH NO
SIGNIFICANT WEATHER AND/OR OBSTRUCTIONS TO VISIBILITY.

NOTE: STATIONS NOT REPORTING VARIABLES SUCH AS SKY/WEATHER OR
PRESSURE ARE PROVIDED BY RAWS AND APRS NETWORKS AND ARE NOT UNDER
NATIONAL WEATHER SERVICE QUALITY CONTROL.

...OBSERVATIONS IN AND NEAR THE EASTERN PANHANDLE OF NEBRASKA...

CITY           SKY/WX    TMP DP  RH WIND       PRES   REMARKS
PINE RIDGE     CLOUDY    17  13  84 W3        30.08S
GORDON         FAIR      21  14  73 W13       30.05R WCI   9
CHADRON        CLOUDY    26  18  71 NW15      30.10S WCI  14
ALLIANCE       PTCLDY    14  10  84 NW13      30.07S WCI   0
SIDNEY         PTCLDY    24  17  74 NW16      30.08S WCI  11
CRESCENT LAKE    N/A     20  12  70 NW8         N/A  WCI  10
$$

...OBSERVATIONS IN NORTHERN NEBRASKA AND FAR SOUTHERN SOUTH DAKOTA...

CITY           SKY/WX    TMP DP  RH WIND       PRES   REMARKS
WINNER         FOG       21  19  92 W5        30.05S VSB 1/4 WCI  15
VALENTINE      CLEAR     14   9  80 W8        30.05R WCI   3
AINSWORTH      CLEAR     19  15  84 NW12      30.03S WCI   7
O`NEILL        CLOUDY    21  21  99 NW13      30.04R WCI   9
THEDFORD       CLEAR     17  11  79 NW9       30.05S WCI   5
BROKEN BOW     CLEAR     25  16  68 NW16      30.03S WCI  12
ORD            CLEAR     19  17  92 NW16      30.03R WCI   4
ALBION         CLOUDY    23  21  91 NW24      30.01R FOG     WCI   7
VALENTINE NWR    N/A     18  12  78 W10         N/A  WCI   6
HALSEY           N/A     19  12  73 NW9G16      N/A  WCI   8
BUTTE            N/A     20  19  93 NW9         N/A  WCI   9
CHAMBERS         N/A     21  19  93 N3          N/A
EWING            N/A     22  21  94 NW12        N/A  WCI  11
$$

...OBSERVATIONS IN SOUTHWEST NEBRASKA AND FAR NORTHEAST COLORADO...

CITY           SKY/WX    TMP DP  RH WIND       PRES   REMARKS
WRAY           FAIR      18  10  73 W6        30.12S WCI   9
HOLYOKE        FAIR      30  18  59 NW17G24   30.09S WCI  18
IMPERIAL       CLEAR     18  10  71 NW15      30.10S WCI   4
OGALLALA       CLEAR     17  11  78 W9        30.10R WCI   6
NORTH PLATTE   CLEAR     13   7  77 NW7       30.09R WCI   3
MCCOOK         CLEAR     17  11  77 W9        30.10S WCI   6
LEXINGTON      CLEAR     18  12  77 W12       30.07R WCI   5
STAPLETON        N/A     17  13  82 CALM        N/A
GOTHENBURG       N/A     17  11  77 W7          N/A  WCI   8
CALLAWAY         N/A     15  10  82 W8          N/A  WCI   4
$$

...OBSERVATIONS IN CENTRAL LINCOLN COUNTY AREA...

CITY           SKY/WX    TMP DP  RH WIND       PRES   REMARKS
N.P. AIRPORT   CLEAR     13   7  77 NW7       30.09R WCI   3
N.P. DOWNTOWN    N/A     16  11  81 CALM        N/A
N.P. SOUTHEAST   N/A     18  12  76 CALM        N/A
N.P. HILLCREST   N/A     18  13  80 NW7         N/A  WCI   9
$$

...SOME OBSERVATIONS FROM AROUND THE REGION...

CITY           SKY/WX    TMP DP  RH WIND       PRES   REMARKS
DENVER         CLOUDY    31  12  45 W9        30.10R WCI  23
BERTHOUD PASS  HVY SNOW   1  -9  60 MISG      29.92F VSB 1/4
GRAND JUNCTION PTCLDY    16  14  92 NE5       30.31F WCI   9
LARAMIE        PTCLDY    15   8  73 W13       30.08R WCI   1
CHEYENNE       CLOUDY    26  14  60 NW14      30.07F WCI  14
CASPER         MOCLDY    21  16  81 SW15      30.11F WCI   8
BISMARCK       CLOUDY    19  17  92 SW5       30.03S FOG     WCI  12
RAPID CITY     CLOUDY    34  24  67 NW17      30.06R WCI  23
PIERRE         FOG       22  22 100 NW3       30.06R VSB 1/2
SIOUX FALLS    CLOUDY    23  21  92 N18G24    29.98R WCI   9
OMAHA          CLOUDY    28  25  88 NW16      29.96R WCI  16
GRAND ISLAND   PTCLDY    20  18  92 NW17      30.02R WCI   5
SCOTTSBLUFF    CLOUDY    27  18  69 W12       30.11S WCI  17
KANSAS CITY    CLOUDY    30  26  85 NW16G24   29.90R WCI  19
HILL CITY      CLEAR     24  17  74 NW14      30.10S WCI  12
WICHITA        CLEAR     31  22  69 NW17      30.05R WCI  19
DODGE CITY     CLEAR     27  14  58 NW14      30.12S WCI  16
OKLAHOMA CITY  CLEAR     36  16  44 NW14      30.11R WCI  27
DALLAS         CLEAR     46  19  34 NW12      30.13F
AMARILLO       CLOUDY    23   3  42 W6        30.17F WCI  16
$$




USA.gov is the U.S. government's official web portal to all federal, state and local government web resources and services.